Regional Weather Roundup
Issued by NWS Newport/Morehead, NC

Current Version | Previous Version | Graphics & Text | Print | Product List | Glossary Off
Versions: 1 2 3 4 5 6 7 8 9 10 11 12 13 14 15 16 17 18 19 20 21 22 23 24 25 26 27 28 29 30 31 32 33 34 35 36 37 38 39 40 41 42 43 44 45 46 47 48 49 50

000
ASUS42 KMHX 290825
RWRMHX
WEATHER ROUNDUP FOR EASTERN NORTH CAROLINA
NATIONAL WEATHER SERVICE NEWPORT/MOREHEAD CITY NC
400 AM EDT SAT APR 29 2017

NOTE: "FAIR" INDICATES FEW OR NO CLOUDS BELOW 12,000 FEET
WITH NO SIGNIFICANT WEATHER AND/OR OBSTRUCTIONS TO VISIBILITY

NCZ015>017-031-032-045>047-102-103-290900-
NORTH COAST

CITY           SKY/WX    TMP DP  RH WIND       PRES   REMARKS
EDENTON        CLOUDY    76  72  86 SW10      30.14R
ELIZABETH CITY MOCLDY    74  73  97 SW13      30.13R
KITTY HAWK     MOSUNNY   74  73  99 SW8G17    30.12R
MANTEO         CLOUDY    73  71  93 SW17G23   30.13S

$$

NCZ045>047-081-094-103-104-290900-
CENTRAL COAST

CITY           SKY/WX    TMP DP  RH WIND       PRES   REMARKS
FRISCO         CLOUDY    74  71  91 SW10      30.16S FOG

$$

NCZ095-097-098-100-101-290900-
SOUTHERN COAST

CITY           SKY/WX    TMP DP  RH WIND       PRES   REMARKS
BEAUFORT       MOCLDY    73  73 100 SW9       30.17R
CEDAR ISLAND   NOT AVBL
JACKSONVILLE   MOCLDY    74  73  97 S9        30.16R
PINEY ISLAND   MOSUNNY  N/A N/A N/A SW12      30.16R
WILMINGTON     CLOUDY    74  72  93 S12       30.16R


$$

NCZ011>013-027>030-043-044-078>080-089-090>093-098-290900-
COASTAL PLAIN

CITY           SKY/WX    TMP DP  RH WIND       PRES   REMARKS
AHOSKIE          N/A     73  70  91 S5        30.12R
CLINTON        MOCLDY    74  73  95 S3        30.14R
ELIZABETHTOWN  MOCLDY    74  73  94 S5        30.14R
GOLDSBORO      CLOUDY    75  75 100 SW7       30.12R
GREENVILLE     CLOUDY    73  73 100 SW8       30.14R
HAVELOCK       NOT AVBL
KENANSVILLE    CLOUDY    73  72  94 CALM      30.14S
KINSTON        MOCLDY    74  71  89 S8        30.14S
NEW BERN       MOCLDY    74  72  93 SW9       30.16R
RICHLANDS      CLOUDY    73  72  94 S6        30.16R
ROCKY MOUNT    CLOUDY    75  72  90 S9        30.13R
WASHINGTON     CLOUDY    74  71  89 S10       30.14R
WHITEVILLE     MOCLDY    74  72  91 S8        30.14R

$$

AMZ130-135-150-152-154-156-158-170-250-252-270-ANZ085-086-088-633-658-670-290900-
MARINE OBSERVATIONS

STATION/POSITION TIME  TEMP    WIND        PRES    WAVE   SWELL
                       AIR SEA DIR/SP/G            HT/PER HT/PER
                 (UTC) (F)     (DEG/KT/KT) (MB)    (FT/S) (FT/S)
CHESAPEAKE LIGHT NOT AVBL
64 E VA BEACH    0750   62 57  220/ 12/ 14 1020.4    4/ 8   3/ 8
DUCK             0800   74 58  200/ 12/ 18 1019.7
2 E DUCK         0800      59                N/A     2/ 8
OREGON INLET     0800   74 75  200/ 17/ 20 1020.5
13E OREGON INLT  0748      62                N/A     3/ 5   2/ 8
HATTERAS CG      0800   73 72  200/ 10/ 14 1021.0
DIAMOND BUOY     0750   77 76  210/ 17/ 21 1021.3    4/ 5   2/ 8
CAPE LOOKOUT     0800   73     210/  6/  8 1021.4
BEAUFORT LAB     0800   72 70  210/  6/  7 1021.0
30 SE NEW RVR IN 0808   72     200/  8/ 12 1021.8
30 SE NEW RVR IN 0743      72                N/A     4/ 7
27 SE WRIGHTSVLE 0808   73 72  180/ 10/ 14 1020.4
5 SE WRIGHTSVLE  0808   71 70  200/  4/  6 1021.2
225 S CAPE HAT   0750   74 74  160/ 14/ 16 1023.3    4/ 7   2/ 7
41 SE CHARLESTON 0810   75 74  180/ 12/ 14 1020.5

$$




USA.gov is the U.S. government's official web portal to all federal, state and local government web resources and services.